• In Deutschland
  • Länderverzeichnis
  • Für 7 Tage
  • Wassertemperatur
  • Satellitenkarten
  • Wetterkarte
  • Widgets
  • user-avatar
    Anmelden

    Stündliche Wetter Blieskastel

    Heute, 17 Januar, Mittwoch

    Zeit Temperatur Niederschläge Wind Luftdruck Luftfeuchtigkeit
    00:00 +2°C° 0 mm 6 m/S 724 mmHg 83%
    01:00 +2°C° 0,2 mm 7 m/S 724 mmHg 82%
    02:00 +2°C° 0,2 mm 7 m/S 724 mmHg 81%
    03:00 +1°C° 0,2 mm 8 m/S 724 mmHg 80%
    04:00 0°C° 0,3 mm 8 m/S 724 mmHg 78%
    05:00 0°C° 0,3 mm 8 m/S 725 mmHg 77%
    06:00 0°C° 0 mm 5 m/S 726 mmHg 79%
    07:00 -1°C° 0,1 mm 6 m/S 727 mmHg 77%
    08:00 -1°C° 0,1 mm 7 m/S 728 mmHg 75%
    09:00 -1°C° 0,1 mm 7 m/S 729 mmHg 73%
    10:00 -1°C° 0,1 mm 8 m/S 730 mmHg 71%
    11:00 0°C° 0,1 mm 8 m/S 730 mmHg 69%
    12:00 0°C° 0 mm 8 m/S 732 mmHg 68%
    13:00 0°C° 0,1 mm 8 m/S 732 mmHg 70%
    14:00 0°C° 0,1 mm 8 m/S 732 mmHg 71%
    15:00 +1°C° 0,1 mm 8 m/S 733 mmHg 72%
    16:00 0°C° 0,1 mm 7 m/S 733 mmHg 74%
    17:00 0°C° 0,1 mm 7 m/S 734 mmHg 77%
    18:00 0°C° 0,1 mm 7 m/S 734 mmHg 79%
    19:00 -1°C° 0,1 mm 6 m/S 735 mmHg 81%
    20:00 -1°C° 0,1 mm 6 m/S 735 mmHg 82%
    21:00 -1°C° 0,1 mm 6 m/S 735 mmHg 83%
    22:00 +1°C° 0,1 mm 6 m/S 735 mmHg 85%
    23:00 +1°C° 0,1 mm 6 m/S 735 mmHg 86%

    Morgen, 18 Januar, Donnerstag

    Zeit Temperatur Niederschläge Wind Luftdruck Luftfeuchtigkeit
    00:00 +1°C° 0,1 mm 6 m/S 735 mmHg 87%
    01:00 0°C° 0,3 mm 7 m/S 734 mmHg 87%
    02:00 +2°C° 0,3 mm 7 m/S 733 mmHg 86%
    03:00 +1°C° 0,3 mm 8 m/S 732 mmHg 86%
    04:00 +1°C° 1 mm 9 m/S 731 mmHg 85%
    05:00 +2°C° 1 mm 9 m/S 730 mmHg 84%
    06:00 +2°C° 1 mm 10 m/S 729 mmHg 83%
    07:00 +3°C° 0,6 mm 10 m/S 728 mmHg 83%
    08:00 +4°C° 0,6 mm 11 m/S 728 mmHg 84%
    09:00 +6°C° 0,6 mm 11 m/S 728 mmHg 84%
    10:00 +6°C° 0,4 mm 11 m/S 728 mmHg 83%
    11:00 +6°C° 0,4 mm 11 m/S 728 mmHg 82%
    12:00 +7°C° 0,4 mm 10 m/S 728 mmHg 80%
    13:00 +6°C° 0,2 mm 9 m/S 729 mmHg 78%
    14:00 +6°C° 0,2 mm 8 m/S 729 mmHg 76%
    15:00 +5°C° 0,2 mm 7 m/S 730 mmHg 74%
    16:00 +4°C° 0,1 mm 6 m/S 730 mmHg 78%
    17:00 +3°C° 0,1 mm 5 m/S 729 mmHg 81%
    18:00 +4°C° 0,1 mm 4 m/S 729 mmHg 84%
    19:00 +3°C° 0,1 mm 5 m/S 729 mmHg 84%
    20:00 +4°C° 0,1 mm 6 m/S 729 mmHg 83%
    21:00 +4°C° 0,1 mm 7 m/S 729 mmHg 82%
    22:00 +3°C° 0,2 mm 6 m/S 730 mmHg 82%
    23:00 +3°C° 0,2 mm 6 m/S 730 mmHg 82%

    übermorgen, 19 Januar, Freitag

    Zeit Temperatur Niederschläge Wind Luftdruck Luftfeuchtigkeit
    00:00 +3°C° 0,2 mm 6 m/S 730 mmHg 82%
    01:00 +2°C° 0,1 mm 5 m/S 731 mmHg 82%
    02:00 +1°C° 0,1 mm 5 m/S 731 mmHg 82%
    03:00 +1°C° 0,1 mm 5 m/S 732 mmHg 82%
    04:00 0°C° 0 mm 5 m/S 732 mmHg 83%
    05:00 0°C° 0 mm 4 m/S 733 mmHg 85%
    06:00 -1°C° 0 mm 4 m/S 733 mmHg 87%
    07:00 0°C° 0 mm 4 m/S 734 mmHg 86%
    08:00 0°C° 0 mm 4 m/S 734 mmHg 85%
    09:00 0°C° 0 mm 4 m/S 735 mmHg 84%
    10:00 +1°C° 0,1 mm 4 m/S 735 mmHg 80%
    11:00 +3°C° 0,1 mm 4 m/S 735 mmHg 76%
    12:00 +2°C° 0,1 mm 5 m/S 735 mmHg 71%
    13:00 +3°C° 0,1 mm 4 m/S 735 mmHg 73%
    14:00 +3°C° 0,1 mm 4 m/S 735 mmHg 75%
    15:00 +3°C° 0,1 mm 4 m/S 734 mmHg 76%
    16:00 +1°C° 0,1 mm 4 m/S 734 mmHg 80%
    17:00 +2°C° 0,1 mm 3 m/S 734 mmHg 83%
    18:00 +1°C° 0,1 mm 3 m/S 734 mmHg 87%
    19:00 0°C° 0,4 mm 4 m/S 734 mmHg 86%
    20:00 0°C° 0,4 mm 4 m/S 734 mmHg 86%
    21:00 0°C° 0,4 mm 5 m/S 734 mmHg 86%
    22:00 0°C° 0,1 mm 5 m/S 734 mmHg 86%
    23:00 0°C° 0,1 mm 5 m/S 734 mmHg 87%

    20 Januar, Samstag

    Zeit Temperatur Niederschläge Wind Luftdruck Luftfeuchtigkeit
    00:00 0°C° 0,1 mm 5 m/S 734 mmHg 87%
    01:00 -1°C° 0,1 mm 5 m/S 735 mmHg 87%
    02:00 -1°C° 0,1 mm 4 m/S 735 mmHg 87%
    03:00 -2°C° 0,1 mm 4 m/S 735 mmHg 87%
    04:00 -2°C° 0,1 mm 4 m/S 735 mmHg 89%
    05:00 -2°C° 0,1 mm 4 m/S 735 mmHg 90%
    06:00 -2°C° 0,1 mm 4 m/S 735 mmHg 91%
    07:00 -2°C° 0,1 mm 4 m/S 735 mmHg 90%
    08:00 -1°C° 0,1 mm 4 m/S 735 mmHg 89%
    09:00 -1°C° 0,1 mm 4 m/S 735 mmHg 88%
    10:00 0°C° 0,2 mm 4 m/S 734 mmHg 87%
    11:00 0°C° 0,2 mm 4 m/S 734 mmHg 86%
    12:00 +1°C° 0,2 mm 4 m/S 734 mmHg 85%
    13:00 +2°C° 0,2 mm 3 m/S 733 mmHg 87%
    14:00 +2°C° 0,2 mm 2 m/S 733 mmHg 88%
    15:00 +2°C° 0,2 mm 2 m/S 733 mmHg 89%
    16:00 +3°C° 0,1 mm 1 m/S 733 mmHg 91%
    17:00 +2°C° 0,1 mm 1 m/S 734 mmHg 92%
    18:00 +2°C° 0,1 mm 1 m/S 734 mmHg 93%
    19:00 +1°C° 0 mm 1 m/S 735 mmHg 93%
    20:00 0°C° 0 mm 1 m/S 735 mmHg 93%
    21:00 0°C° 0 mm 1 m/S 736 mmHg 93%
    22:00 0°C° 0 mm 1 m/S 737 mmHg 92%
    23:00 -1°C° 0 mm 1 m/S 737 mmHg 92%

    21 Januar, Sonntag

    Zeit Temperatur Niederschläge Wind Luftdruck Luftfeuchtigkeit
    00:00 -1°C° 0 mm 1 m/S 738 mmHg 92%
    01:00 -1°C° 0 mm 1 m/S 738 mmHg 92%
    02:00 -1°C° 0 mm 1 m/S 739 mmHg 92%
    03:00 -1°C° 0 mm 1 m/S 739 mmHg 92%
    04:00 -1°C° 0 mm 1 m/S 739 mmHg 92%
    05:00 0°C° 0 mm 1 m/S 740 mmHg 91%
    06:00 0°C° 0 mm 1 m/S 740 mmHg 91%
    07:00 +1°C° 0 mm 1 m/S 740 mmHg 90%
    08:00 +1°C° 0 mm 1 m/S 741 mmHg 88%
    09:00 +1°C° 0 mm 2 m/S 741 mmHg 87%
    10:00 +1°C° 0,1 mm 2 m/S 741 mmHg 86%
    11:00 +2°C° 0,1 mm 2 m/S 740 mmHg 85%
    12:00 +2°C° 0,1 mm 2 m/S 740 mmHg 84%
    13:00 +1°C° 0,4 mm 3 m/S 740 mmHg 86%
    14:00 +1°C° 0,4 mm 3 m/S 739 mmHg 88%
    15:00 +1°C° 0,4 mm 3 m/S 738 mmHg 89%
    16:00 +1°C° 1,4 mm 3 m/S 738 mmHg 92%
    17:00 +2°C° 1,4 mm 3 m/S 737 mmHg 94%
    18:00 +2°C° 1,4 mm 3 m/S 737 mmHg 96%
    19:00 +3°C° 1,4 mm 3 m/S 737 mmHg 96%
    20:00 +4°C° 1,4 mm 4 m/S 737 mmHg 96%
    21:00 +6°C° 1,4 mm 5 m/S 737 mmHg 97%
    22:00 +6°C° 0,3 mm 5 m/S 737 mmHg 96%
    23:00 +7°C° 0,3 mm 5 m/S 737 mmHg 96%

    22 Januar, Montag

    Zeit Temperatur Niederschläge Wind Luftdruck Luftfeuchtigkeit
    00:00 +7°C° 0,3 mm 5 m/S 737 mmHg 95%
    01:00 +7°C° 0,1 mm 5 m/S 738 mmHg 95%
    02:00 +7°C° 0,1 mm 5 m/S 738 mmHg 95%
    03:00 +7°C° 0,1 mm 4 m/S 738 mmHg 95%
    04:00 +7°C° 0,1 mm 4 m/S 739 mmHg 96%
    05:00 +7°C° 0,1 mm 4 m/S 739 mmHg 96%
    06:00 +8°C° 0,1 mm 3 m/S 740 mmHg 97%
    07:00 +8°C° 0,1 mm 3 m/S 740 mmHg 97%
    08:00 +8°C° 0,1 mm 3 m/S 740 mmHg 97%
    09:00 +8°C° 0,1 mm 3 m/S 741 mmHg 97%
    10:00 +8°C° 0,6 mm 3 m/S 741 mmHg 97%
    11:00 +9°C° 0,6 mm 3 m/S 741 mmHg 96%
    12:00 +8°C° 0,6 mm 4 m/S 741 mmHg 96%
    13:00 +8°C° 0,3 mm 4 m/S 741 mmHg 95%
    14:00 +9°C° 0,3 mm 5 m/S 741 mmHg 95%
    15:00 +9°C° 0,3 mm 5 m/S 741 mmHg 94%
    16:00 +9°C° 0,1 mm 5 m/S 741 mmHg 93%
    17:00 +9°C° 0,1 mm 5 m/S 741 mmHg 93%
    18:00 +9°C° 0,1 mm 5 m/S 741 mmHg 92%
    19:00 +9°C° 0,4 mm 6 m/S 741 mmHg 92%
    20:00 +9°C° 0,4 mm 6 m/S 741 mmHg 92%
    21:00 +9°C° 0,4 mm 6 m/S 742 mmHg 91%
    22:00 +9°C° 0,7 mm 6 m/S 742 mmHg 91%
    23:00 +9°C° 0,7 mm 6 m/S 742 mmHg 91%
    Mehr zeigen